Location: D�derode
(51.8092°N, 10.1065°E)
Time: 16:45:31
(UTC+00:00)

Cosmos 1869 Rocket - Visible Passes

Search period start: 16 April 2021 00:00
Search period end: 26 April 2021 00:00
Orbit: 605 x 633 km, 82.5° (Epoch: 16 April)

Date Brightness Start Highest point End Pass type
(mag) Time Alt. Az. Time Alt. Az. Time Alt. Az.
16 Apr 3.8 00:26:10 10° N 00:29:57 64° N 00:29:57 64° N visible
16 Apr 5.7 02:05:52 10° NW 02:07:06 12° WNW 02:07:06 12° WNW visible
16 Apr 5.6 23:06:22 10° NNE 23:09:38 20° ENE 23:09:57 20° ENE visible
17 Apr 4.1 00:43:34 10° NNW 00:47:06 48° NW 00:47:06 48° NW visible
17 Apr 4.9 23:23:16 10° N 23:27:07 31° ENE 23:27:07 31° ENE visible
18 Apr 4.7 01:01:09 10° NNW 01:04:16 30° WNW 01:04:16 30° WNW visible
18 Apr 4.2 23:40:23 10° N 23:44:17 50° NE 23:44:17 50° NE visible
19 Apr 5.3 01:19:00 10° NW 01:21:26 19° WNW 01:21:26 19° WNW visible
19 Apr 6.0 22:21:20 10° NNE 22:23:28 13° ENE 22:24:20 13° ENE visible
19 Apr 3.8 23:57:39 10° N 00:01:28 66° N 00:01:28 66° N visible
20 Apr 5.8 01:37:33 10° WNW 01:38:37 12° WNW 01:38:37 12° WNW visible
20 Apr 5.4 22:37:49 10° NNE 22:41:09 21° ENE 22:41:31 20° ENE visible
21 Apr 4.1 00:15:05 10° NNW 00:18:40 47° WNW 00:18:40 47° WNW visible
21 Apr 4.8 22:54:44 10° N 22:58:42 32° ENE 22:58:43 32° ENE visible
22 Apr 4.8 00:32:41 10° NNW 00:35:52 30° WNW 00:35:52 30° WNW visible
22 Apr 4.0 23:11:52 10° N 23:15:56 53° ENE 23:15:56 53° ENE visible
23 Apr 5.4 00:50:34 10° NW 00:53:04 19° WNW 00:53:04 19° WNW visible
23 Apr 5.8 21:52:44 10° NNE 21:54:59 14° ENE 21:56:00 13° ENE visible
23 Apr 3.6 23:29:09 10° N 23:33:09 73° NNW 23:33:09 73° NNW visible
24 Apr 5.9 01:09:14 10° WNW 01:10:18 11° WNW 01:10:18 11° WNW visible
24 Apr 5.3 22:09:16 10° NNE 22:12:39 21° ENE 22:13:13 21° ENE visible
24 Apr 4.1 23:46:35 10° NNW 23:50:22 48° WNW 23:50:22 48° WNW visible
25 Apr 4.6 22:26:12 10° N 22:30:12 34° ENE 22:30:27 33° ENE visible
